Location: Newark
(46.0000°N, 5.0167°E)
Time: 12:32:53
(UTC+00:00)

N. Korean satellite - Visible Passes

Search period start: 17 September 2019 00:00
Search period end: 27 September 2019 00:00
Orbit: 455 x 508 km, 97.2° (Epoch: 16 September)

Date Brightness Start Highest point End Pass type
(mag) Time Alt. Az. Time Alt. Az. Time Alt. Az.
17 Sep 9.9 04:43:11 10° NE 04:45:10 15° E 04:47:09 10° SE visible
21 Sep 10.1 04:36:11 10° ENE 04:37:36 12° E 04:39:01 10° ESE visible
24 Sep 9.7 04:52:54 10° NE 04:55:27 19° E 04:58:01 10° SE visible
